Location: Raitis
(47.2167°N, 11.3833°E)
Time: 08:29:35
(UTC+00:00)

SL-8 Rocket - Pass Details

Date: 03 March 2021
Orbit: 957 x 991 km, 82.9° (Epoch: 14 April)

Event Time Altitude Azimuth Distance (km) Brightness Sun altitude
Rises 18:06:17 0° 161° (SSE) 3,669 6.8 -11.6°
Reaches altitude 10° 18:08:57 10° 153° (SSE) 2,721 6.0 -12.0°
Maximum altitude 18:14:36 38° 88° (E) 1,454 4.4 -13.0°
Drops below altitude 10° 18:20:14 10° 23° (NNE) 2,716 6.2 -13.9°
Sets 18:22:54 0° 16° (NNE) 3,663 6.9 -14.4°
